Weather History for Cape Girardeau, MO

Change the Weather History Date:

Wednesday, December 26, 2012

  Actual Average Record
Temperature  
Mean Temperature 32 °F 34 °F  
Max Temperature 33 °F 43 °F 66 °F (2008)
Min Temperature 30 °F 25 °F 3 °F (1983)
Degree Days  
Heating Degree Days 33 31  
Month to date heating degree days 505 742  
Since 1 July heating degree days 1444 1593  
Cooling Degree Days 0 0  
Month to date cooling degree days 0 0  
Year to date cooling degree days 1784 1453  
Moisture  
Dew Point 26 °F    
Average Humidity 78    
Maximum Humidity 92    
Minimum Humidity 64    
Precipitation  
Precipitation 0.11 in 0.13 in 0.79 in (1973)
Month to date precipitation 1.37 3.64  
Year to date precipitation 26.65 46.20  
Sea Level Pressure  
Sea Level Pressure 29.88 in    
Wind  
Wind Speed 19 mph (NNW)    
Max Wind Speed 33 mph    
Max Gust Speed 41 mph    
Visibility 4 miles    
Events Fog , Snow    
T = Trace of Precipitation, MM = Missing Value Source: NWS Daily Summary

Daily Weather History Graph

Daily Weather History Graph

Search for Another Location

Airport:

Trip Planner

Search our weather history database for the weather conditions in past years. The results will help you decide how hot, cold, wet, or windy it might be!

Date:

Astronomy

Dec. 26, 2012 Rise Set
Actual Time 7:10 AM CST 4:47 PM CST
Civil Twilight 6:41 AM CST 5:16 PM CST
Nautical Twilight 6:09 AM CST 5:49 PM CST
Astronomical Twilight 5:37 AM CST 6:21 PM CST
Moon 3:40 PM CST (12/26) 5:34 AM CST (12/26)
Length of Visible Light 10h 35m
Length of Day
9h 36m
Waxing Gibbous, 97% of the Moon is Illuminated
Dec 26
Waxing Gibbous
Dec 28
Full
Jan 4
Last Quarter
Jan 11
New
Jan 18
First Quarter

Hourly Weather History & Observations

Time (CST) Temp. Windchill Dew Point Humidity Pressure Visibility Wind Dir Wind Speed Gust Speed Precip Events Conditions
12:15 AM 32.0 °F 19.8 °F 28.4 °F 87% 29.75 in 1.0 mi North 20.7 mph 33.4 mph 0.00 in Snow Light Snow
12:53 AM 32.0 °F 18.6 °F 28.9 °F 88% 29.75 in 1.0 mi North 25.3 mph 33.4 mph 0.00 in Snow Light Snow
1:00 AM 32.0 °F 17.0 °F 28.4 °F 87% 29.72 in 0.8 mi North 33.4 mph 41.4 mph 0.00 in Snow Light Snow
1:10 AM 30.2 °F 16.2 °F 28.4 °F 93% 29.73 in 0.5 mi North 25.3 mph 34.5 mph 0.01 in Fog Light Freezing Fog
1:21 AM 30.2 °F 15.7 °F 28.4 °F 93% 29.73 in 0.2 mi North 27.6 mph 38.0 mph 0.03 in Fog Light Freezing Fog
1:33 AM 30.2 °F 15.4 °F 28.4 °F 93% 29.73 in 0.2 mi North 28.8 mph 36.8 mph 0.04 in Fog Light Freezing Fog
1:53 AM 30.9 °F 16.4 °F 28.9 °F 92% 29.72 in 0.2 mi North 28.8 mph 36.8 mph 0.05 in Fog Light Freezing Fog
2:05 AM 30.2 °F 15.9 °F 28.4 °F 93% 29.71 in 0.5 mi North 26.5 mph 38.0 mph 0.02 in Fog , Snow Snow
2:12 AM 30.2 °F 15.7 °F 28.4 °F 93% 29.71 in 0.5 mi North 27.6 mph 34.5 mph 0.03 in Fog , Snow Snow
2:53 AM 30.2 °F 16.2 °F 28.4 °F 93% 29.71 in 0.8 mi North 25.3 mph 34.5 mph N/A Snow Light Snow
3:12 AM 30.2 °F 16.2 °F 28.4 °F 93% 29.71 in 0.8 mi North 25.3 mph 33.4 mph 0.00 in Snow Light Snow
3:53 AM 32.0 °F 18.6 °F 28.9 °F 88% 29.72 in 0.5 mi North 25.3 mph 33.4 mph 0.02 in Fog , Snow Snow
4:35 AM 32.0 °F 18.6 °F 28.4 °F 87% 29.72 in 0.8 mi North 25.3 mph 38.0 mph 0.01 in Snow Light Snow
4:53 AM 32.0 °F 19.5 °F 28.9 °F 88% 29.73 in 0.8 mi North 21.9 mph 33.4 mph 0.01 in Snow Light Snow
5:01 AM 32.0 °F 18.6 °F 28.4 °F 87% 29.73 in 1.0 mi North 25.3 mph 35.7 mph 0.00 in Snow Light Snow
5:10 AM 32.0 °F 18.6 °F 28.4 °F 87% 29.73 in 1.2 mi North 25.3 mph 32.2 mph 0.00 in Snow Light Snow
5:53 AM 32.0 °F 18.4 °F 28.0 °F 85% 29.76 in 1.8 mi NNW 26.5 mph 36.8 mph 0.00 in Snow Light Snow
6:03 AM 30.2 °F 16.2 °F 28.4 °F 93% 29.76 in 2.5 mi NNW 25.3 mph 36.8 mph 0.00 in Snow Light Snow
6:30 AM 30.2 °F 15.7 °F 28.4 °F 93% 29.77 in 1.8 mi North 27.6 mph 32.2 mph 0.00 in Snow Light Snow
6:53 AM 30.9 °F 17.5 °F 28.0 °F 89% 29.79 in 1.2 mi North 24.2 mph 33.4 mph 0.00 in Snow Light Snow
7:53 AM 30.9 °F 18.4 °F 27.0 °F 85% 29.82 in 1.8 mi NNW 20.7 mph 29.9 mph 0.00 in Snow Light Snow
8:39 AM 30.2 °F 17.1 °F 26.6 °F 86% 29.84 in 2.5 mi NNW 21.9 mph 33.4 mph 0.00 in Snow Light Snow
8:53 AM 30.9 °F 17.5 °F 27.0 °F 85% 29.86 in 2.5 mi NNW 24.2 mph 32.2 mph 0.00 in Snow Light Snow
9:18 AM 30.2 °F 17.4 °F 26.6 °F 86% 29.87 in 3.0 mi NNW 20.7 mph 29.9 mph 0.00 in Snow Light Snow
9:27 AM 30.2 °F 17.4 °F 26.6 °F 86% 29.87 in 2.5 mi NNW 20.7 mph 31.1 mph 0.00 in Snow Light Snow
9:45 AM 32.0 °F 18.9 °F 26.6 °F 80% 29.89 in 3.0 mi NNW 24.2 mph 32.2 mph 0.00 in Snow Light Snow
9:53 AM 32.0 °F 17.9 °F 26.1 °F 79% 29.90 in 3.0 mi NNW 28.8 mph 33.4 mph 0.00 in Snow Light Snow
10:00 AM 32.0 °F 19.2 °F 26.6 °F 80% 29.90 in 2.5 mi NNW 23.0 mph 35.7 mph 0.00 in Snow Light Snow
10:09 AM 32.0 °F 18.1 °F 26.6 °F 80% 29.90 in 5.0 mi NNW 27.6 mph 33.4 mph 0.00 in Snow Light Snow
10:53 AM 32.0 °F 18.4 °F 26.1 °F 79% 29.93 in 9.0 mi NNW 26.5 mph 34.5 mph 0.00 in   Overcast
11:53 AM 32.0 °F 21.2 °F 25.0 °F 75% 29.96 in 9.0 mi NNW 16.1 mph 31.1 mph N/A   Overcast
12:53 PM 33.1 °F 20.9 °F 25.0 °F 72% 29.96 in 10.0 mi NNW 21.9 mph 32.2 mph N/A   Overcast
1:53 PM 33.1 °F 21.5 °F 25.0 °F 72% 29.99 in 10.0 mi NNW 19.6 mph - N/A   Overcast
2:53 PM 33.1 °F 23.0 °F 25.0 °F 72% 30.03 in 10.0 mi NNW 15.0 mph - N/A   Overcast
3:53 PM 33.1 °F 23.0 °F 24.1 °F 70% 30.05 in 10.0 mi NNW 15.0 mph 23.0 mph N/A   Overcast
4:53 PM 33.8 °F 23.5 °F 24.8 °F 70% 30.06 in 10.0 mi North 16.1 mph - N/A   Overcast
5:53 PM 33.1 °F 21.9 °F 23.0 °F 66% 30.11 in 10.0 mi NNW 18.4 mph - N/A   Overcast
6:53 PM 32.0 °F 22.1 °F 23.0 °F 69% 30.12 in 10.0 mi NNW 13.8 mph - N/A   Overcast
7:53 PM 32.0 °F 23.0 °F 23.0 °F 69% 30.15 in 10.0 mi NNW 11.5 mph - N/A   Overcast
8:53 PM 32.0 °F 24.8 °F 23.0 °F 69% 30.14 in 10.0 mi NNW 8.1 mph - N/A   Overcast
9:26 PM 30.2 °F 21.3 °F 23.0 °F 75% 30.14 in 10.0 mi NW 10.4 mph - N/A   Overcast
9:53 PM 30.9 °F 22.8 °F 21.9 °F 69% 30.16 in 10.0 mi NW 9.2 mph - N/A   Overcast
10:53 PM 30.9 °F 24.3 °F 23.0 °F 72% 30.18 in 10.0 mi NW 6.9 mph - N/A   Overcast
11:53 PM 30.0 °F 22.4 °F 21.9 °F 72% 30.18 in 10.0 mi NW 8.1 mph - N/A   Overcast